Time,TemperatureF,DewpointF,PressureIn,WindDirection,WindDirectionDegrees,WindSpeedMPH,WindSpeedGustMPH,Humidity,HourlyPrecipIn,Conditions,Clouds,dailyrainin,SoftwareType,DateUTC
2013-01-18 00:11:00,33.1,30.0,30.30,SSE,163,9.0,19.0,87,0.00,,,0.00,weatherlink.com 1.10,2013-01-18 06:11:00,
2013-01-18 00:26:00,32.8,30.0,30.29,South,170,9.0,18.0,88,0.00,,,0.00,weatherlink.com 1.10,2013-01-18 06:26:00,
2013-01-18 00:41:00,32.6,30.0,30.28,South,171,12.0,20.0,88,0.00,,,0.00,weatherlink.com 1.10,2013-01-18 06:41:00,
2013-01-18 00:56:00,32.4,29.0,30.28,SSE,168,13.0,21.0,88,0.00,,,0.00,weatherlink.com 1.10,2013-01-18 06:56:00,
2013-01-18 01:11:00,32.2,29.0,30.27,SSE,161,13.0,17.0,88,0.00,,,0.00,weatherlink.com 1.10,2013-01-18 07:11:00,
2013-01-18 01:26:00,32.0,29.0,30.27,South,190,10.0,19.0,88,0.00,,,0.00,weatherlink.com 1.10,2013-01-18 07:26:00,
2013-01-18 01:41:00,32.4,29.0,30.26,South,171,9.0,19.0,88,0.00,,,0.00,weatherlink.com 1.10,2013-01-18 07:41:00,
2013-01-18 01:56:00,31.9,29.0,30.25,SSE,167,13.0,14.0,88,0.00,,,0.00,weatherlink.com 1.10,2013-01-18 07:56:00,
2013-01-18 02:11:00,31.8,29.0,30.24,South,186,9.0,15.0,88,0.00,,,0.00,weatherlink.com 1.10,2013-01-18 08:11:00,
2013-01-18 02:26:00,32.2,29.0,30.24,SSE,166,12.0,20.0,87,0.00,,,0.00,weatherlink.com 1.10,2013-01-18 08:26:00,
2013-01-18 02:41:00,32.5,29.0,30.23,South,184,14.0,18.0,86,0.00,,,0.00,weatherlink.com 1.10,2013-01-18 08:41:00,
2013-01-18 02:57:00,33.0,29.0,30.22,SSW,198,16.0,19.0,85,0.00,,,0.00,weatherlink.com 1.10,2013-01-18 08:57:00,
2013-01-18 03:11:00,33.2,29.0,30.21,South,182,8.0,19.0,84,0.00,,,0.00,weatherlink.com 1.10,2013-01-18 09:11:00,
2013-01-18 03:27:00,33.3,29.0,30.20,South,182,9.0,19.0,84,0.00,,,0.00,weatherlink.com 1.10,2013-01-18 09:27:00,
2013-01-18 03:42:00,33.6,29.0,30.18,South,187,8.0,20.0,82,0.00,,,0.00,weatherlink.com 1.10,2013-01-18 09:42:00,
2013-01-18 03:57:00,33.4,29.0,30.19,SSW,201,6.0,16.0,82,0.00,,,0.00,weatherlink.com 1.10,2013-01-18 09:57:00,
2013-01-18 04:12:00,33.5,28.0,30.18,South,180,7.0,16.0,81,0.00,,,0.00,weatherlink.com 1.10,2013-01-18 10:12:00,
2013-01-18 04:27:00,33.5,28.0,30.17,SSW,201,11.0,15.0,80,0.00,,,0.00,weatherlink.com 1.10,2013-01-18 10:27:00,
2013-01-18 04:42:00,34.0,28.0,30.16,SSW,197,7.0,19.0,79,0.00,,,0.00,weatherlink.com 1.10,2013-01-18 10:42:00,
2013-01-18 04:57:00,34.2,28.0,30.15,SSE,167,11.0,20.0,78,0.00,,,0.00,weatherlink.com 1.10,2013-01-18 10:57:00,
2013-01-18 05:27:00,34.0,28.0,30.13,South,185,13.0,21.0,78,0.00,,,0.00,weatherlink.com 1.10,2013-01-18 11:27:00,
2013-01-18 05:42:00,34.1,28.0,30.12,SW,231,5.0,14.0,78,0.00,,,0.00,weatherlink.com 1.10,2013-01-18 11:42:00,
2013-01-18 05:57:00,35.0,28.0,30.12,SSW,194,13.0,17.0,76,0.00,,,0.00,weatherlink.com 1.10,2013-01-18 11:57:00,
2013-01-18 06:12:00,35.8,28.0,30.10,South,182,14.0,22.0,74,0.00,,,0.00,weatherlink.com 1.10,2013-01-18 12:12:00,
2013-01-18 06:27:00,36.4,29.0,30.08,SSW,199,10.0,22.0,73,0.00,,,0.00,weatherlink.com 1.10,2013-01-18 12:27:00,
2013-01-18 06:42:00,36.8,29.0,30.08,SSW,213,7.0,23.0,72,0.00,,,0.00,weatherlink.com 1.10,2013-01-18 12:42:00,
2013-01-18 06:57:00,37.3,29.0,30.07,SSW,206,15.0,29.0,71,0.00,,,0.00,weatherlink.com 1.10,2013-01-18 12:57:00,
2013-01-18 07:12:00,37.0,29.0,30.07,SSW,209,7.0,25.0,72,0.00,,,0.00,weatherlink.com 1.10,2013-01-18 13:12:00,
2013-01-18 07:27:00,36.9,29.0,30.07,SW,220,6.0,20.0,73,0.00,,,0.00,weatherlink.com 1.10,2013-01-18 13:27:00,
2013-01-18 07:42:00,36.9,29.0,30.07,South,190,8.0,20.0,73,0.00,,,0.00,weatherlink.com 1.10,2013-01-18 13:42:00,
2013-01-18 07:57:00,36.9,29.0,30.07,South,187,14.0,19.0,73,0.00,,,0.00,weatherlink.com 1.10,2013-01-18 13:57:00,
2013-01-18 08:12:00,37.1,29.0,30.07,SW,235,10.0,23.0,73,0.00,,,0.00,weatherlink.com 1.10,2013-01-18 14:12:00,
2013-01-18 08:27:00,37.7,29.0,30.07,SW,226,12.0,28.0,72,0.00,,,0.00,weatherlink.com 1.10,2013-01-18 14:27:00,
2013-01-18 08:42:00,37.7,29.0,30.06,SW,219,9.0,29.0,72,0.00,,,0.00,weatherlink.com 1.10,2013-01-18 14:42:00,
2013-01-18 08:57:00,37.6,30.0,30.06,South,185,15.0,25.0,73,0.00,,,0.00,weatherlink.com 1.10,2013-01-18 14:57:00,
2013-01-18 09:12:00,37.8,30.0,30.05,SSW,198,18.0,24.0,73,0.00,,,0.00,weatherlink.com 1.10,2013-01-18 15:12:00,
2013-01-18 09:27:00,37.9,30.0,30.05,SW,220,26.0,28.0,73,0.00,,,0.00,weatherlink.com 1.10,2013-01-18 15:27:00,
2013-01-18 09:43:00,38.3,30.0,30.05,SW,218,14.0,24.0,73,0.00,,,0.00,weatherlink.com 1.10,2013-01-18 15:43:00,
2013-01-18 10:13:00,39.9,31.0,30.03,SW,220,15.0,27.0,71,0.00,,,0.00,weatherlink.com 1.10,2013-01-18 16:13:00,
2013-01-18 10:28:00,40.1,31.0,30.03,SW,234,19.0,29.0,71,0.00,,,0.00,weatherlink.com 1.10,2013-01-18 16:28:00,
2013-01-18 10:43:00,40.4,32.0,30.03,SW,226,19.0,26.0,71,0.00,,,0.00,weatherlink.com 1.10,2013-01-18 16:43:00,
2013-01-18 10:58:00,41.1,32.0,30.03,SW,216,15.0,29.0,70,0.00,,,0.00,weatherlink.com 1.10,2013-01-18 16:58:00,
2013-01-18 11:13:00,42.0,32.0,30.04,SW,215,11.0,20.0,69,0.00,,,0.00,weatherlink.com 1.10,2013-01-18 17:13:00,
2013-01-18 11:28:00,42.4,32.0,30.02,SW,232,6.0,22.0,68,0.00,,,0.00,weatherlink.com 1.10,2013-01-18 17:28:00,
2013-01-18 11:43:00,43.0,32.0,30.00,South,190,16.0,21.0,66,0.00,,,0.00,weatherlink.com 1.10,2013-01-18 17:43:00,
2013-01-18 11:58:00,43.9,32.0,30.00,WSW,244,5.0,16.0,64,0.00,,,0.00,weatherlink.com 1.10,2013-01-18 17:58:00,
2013-01-18 12:13:00,44.6,33.0,29.98,SW,217,16.0,21.0,63,0.00,,,0.00,weatherlink.com 1.10,2013-01-18 18:13:00,
2013-01-18 12:28:00,44.5,32.0,29.97,SW,227,11.0,26.0,62,0.00,,,0.00,weatherlink.com 1.10,2013-01-18 18:28:00,
2013-01-18 12:43:00,45.3,32.0,29.96,SW,224,9.0,25.0,61,0.00,,,0.00,weatherlink.com 1.10,2013-01-18 18:43:00,
2013-01-18 12:58:00,45.7,32.0,29.95,SW,221,17.0,22.0,60,0.00,,,0.00,weatherlink.com 1.10,2013-01-18 18:58:00,
2013-01-18 13:13:00,46.5,33.0,29.95,SSW,195,9.0,24.0,59,0.00,,,0.00,weatherlink.com 1.10,2013-01-18 19:13:00,
2013-01-18 13:28:00,47.2,32.0,29.94,SW,226,14.0,24.0,57,0.00,,,0.00,weatherlink.com 1.10,2013-01-18 19:28:00,
2013-01-18 13:43:00,47.3,32.0,29.95,SW,230,19.0,24.0,56,0.00,,,0.00,weatherlink.com 1.10,2013-01-18 19:43:00,
2013-01-18 13:58:00,47.6,33.0,29.96,WSW,252,12.0,18.0,57,0.00,,,0.00,weatherlink.com 1.10,2013-01-18 19:58:00,
2013-01-18 14:13:00,47.5,33.0,29.96,SW,221,18.0,18.0,57,0.00,,,0.00,weatherlink.com 1.10,2013-01-18 20:13:00,
2013-01-18 14:28:00,47.0,33.0,29.95,SW,224,13.0,23.0,58,0.00,,,0.00,weatherlink.com 1.10,2013-01-18 20:28:00,
2013-01-18 14:43:00,47.7,33.0,29.94,SW,215,13.0,22.0,58,0.00,,,0.00,weatherlink.com 1.10,2013-01-18 20:43:00,
2013-01-18 15:01:00,48.0,33.0,29.93,SW,225,15.0,23.0,57,0.00,,,0.00,weatherlink.com 1.10,2013-01-18 21:01:00,
2013-01-18 15:13:00,48.1,33.0,29.93,SW,235,8.0,23.0,56,0.00,,,0.00,weatherlink.com 1.10,2013-01-18 21:13:00,
2013-01-18 15:28:00,48.3,33.0,29.94,WSW,252,8.0,18.0,57,0.00,,,0.00,weatherlink.com 1.10,2013-01-18 21:28:00,
2013-01-18 15:43:00,47.8,33.0,29.94,WSW,244,5.0,18.0,57,0.00,,,0.00,weatherlink.com 1.10,2013-01-18 21:43:00,
2013-01-18 15:58:00,47.5,33.0,29.94,SW,235,13.0,17.0,58,0.00,,,0.00,weatherlink.com 1.10,2013-01-18 21:58:00,
2013-01-18 16:13:00,47.2,33.0,29.93,SSW,213,7.0,18.0,59,0.00,,,0.00,weatherlink.com 1.10,2013-01-18 22:13:00,
2013-01-18 16:28:00,47.1,34.0,29.94,SW,228,12.0,14.0,60,0.00,,,0.00,weatherlink.com 1.10,2013-01-18 22:28:00,
2013-01-18 16:43:00,46.4,34.0,29.94,SW,218,7.0,17.0,62,0.00,,,0.00,weatherlink.com 1.10,2013-01-18 22:43:00,
2013-01-18 16:58:00,46.0,34.0,29.94,SW,215,6.0,16.0,63,0.00,,,0.00,weatherlink.com 1.10,2013-01-18 22:58:00,
2013-01-18 17:13:00,45.1,33.0,29.94,SW,236,7.0,14.0,64,0.00,,,0.00,weatherlink.com 1.10,2013-01-18 23:13:00,
2013-01-18 17:28:00,44.2,33.0,29.94,SW,223,7.0,15.0,66,0.00,,,0.00,weatherlink.com 1.10,2013-01-18 23:28:00,
2013-01-18 17:43:00,43.7,33.0,29.94,SW,224,13.0,14.0,66,0.00,,,0.00,weatherlink.com 1.10,2013-01-18 23:43:00,
2013-01-18 17:58:00,43.4,33.0,29.95,SW,232,7.0,16.0,66,0.00,,,0.00,weatherlink.com 1.10,2013-01-18 23:58:00,
2013-01-18 18:13:00,43.2,32.0,29.94,SW,221,10.0,16.0,66,0.00,,,0.00,weatherlink.com 1.10,2013-01-19 00:13:00,
2013-01-18 18:28:00,43.1,33.0,29.94,SSW,210,7.0,14.0,67,0.00,,,0.00,weatherlink.com 1.10,2013-01-19 00:28:00,
2013-01-18 18:43:00,43.0,33.0,29.94,South,191,14.0,14.0,67,0.00,,,0.00,weatherlink.com 1.10,2013-01-19 00:43:00,
2013-01-18 18:58:00,42.8,32.0,29.95,SW,233,7.0,16.0,67,0.00,,,0.00,weatherlink.com 1.10,2013-01-19 00:58:00,
2013-01-18 19:14:00,42.7,32.0,29.95,SW,234,10.0,15.0,67,0.00,,,0.00,weatherlink.com 1.10,2013-01-19 01:14:00,
2013-01-18 19:29:00,42.9,32.0,29.94,SW,215,12.0,19.0,66,0.00,,,0.00,weatherlink.com 1.10,2013-01-19 01:29:00,
2013-01-18 19:44:00,43.0,32.0,29.94,SW,217,17.0,22.0,65,0.00,,,0.00,weatherlink.com 1.10,2013-01-19 01:44:00,
2013-01-18 19:59:00,42.9,32.0,29.94,WSW,242,7.0,19.0,65,0.00,,,0.00,weatherlink.com 1.10,2013-01-19 01:59:00,
2013-01-18 20:14:00,43.1,32.0,29.93,SW,229,12.0,18.0,64,0.00,,,0.00,weatherlink.com 1.10,2013-01-19 02:14:00,
2013-01-18 20:29:00,42.7,31.0,29.93,SW,225,15.0,21.0,64,0.00,,,0.00,weatherlink.com 1.10,2013-01-19 02:29:00,
2013-01-18 20:44:00,42.2,31.0,29.91,SW,225,12.0,19.0,65,0.00,,,0.00,weatherlink.com 1.10,2013-01-19 02:44:00,
2013-01-18 20:59:00,41.9,31.0,29.91,SW,225,15.0,20.0,66,0.00,,,0.00,weatherlink.com 1.10,2013-01-19 02:59:00,
2013-01-18 21:14:00,41.7,31.0,29.91,SW,223,11.0,17.0,67,0.00,,,0.00,weatherlink.com 1.10,2013-01-19 03:14:00,
2013-01-18 21:29:00,41.1,31.0,29.91,SW,222,12.0,16.0,68,0.00,,,0.00,weatherlink.com 1.10,2013-01-19 03:29:00,
2013-01-18 21:44:00,40.6,31.0,29.90,SW,220,8.0,15.0,69,0.00,,,0.00,weatherlink.com 1.10,2013-01-19 03:44:00,
2013-01-18 21:59:00,40.5,31.0,29.90,SW,218,11.0,16.0,69,0.00,,,0.00,weatherlink.com 1.10,2013-01-19 03:59:00,
2013-01-18 22:14:00,40.2,31.0,29.90,SSW,211,10.0,16.0,69,0.00,,,0.00,weatherlink.com 1.10,2013-01-19 04:14:00,
2013-01-18 22:29:00,40.1,31.0,29.89,SW,225,6.0,18.0,70,0.00,,,0.00,weatherlink.com 1.10,2013-01-19 04:29:00,
2013-01-18 22:44:00,39.9,31.0,29.89,SW,215,13.0,19.0,70,0.00,,,0.00,weatherlink.com 1.10,2013-01-19 04:44:00,
2013-01-18 22:59:00,39.9,31.0,29.89,SSW,208,14.0,17.0,70,0.00,,,0.00,weatherlink.com 1.10,2013-01-19 04:59:00,
2013-01-18 23:14:00,39.5,31.0,29.88,SW,228,10.0,16.0,71,0.00,,,0.00,weatherlink.com 1.10,2013-01-19 05:14:00,
2013-01-18 23:29:00,39.4,31.0,29.88,SW,226,9.0,18.0,71,0.00,,,0.00,weatherlink.com 1.10,2013-01-19 05:29:00,
2013-01-18 23:44:00,39.5,31.0,29.87,SW,224,9.0,17.0,71,0.00,,,0.00,weatherlink.com 1.10,2013-01-19 05:44:00,
2013-01-18 23:59:00,39.2,31.0,29.87,SSW,209,11.0,15.0,71,0.00,,,0.00,weatherlink.com 1.10,2013-01-19 05:59:00,